Home > Weather > Valladolid > Past weeks

Flag for Spain Weather for the Past 2 Weeks in Valladolid, Spain

Now
46 °F

Drizzle. Mostly cloudy.


Feels Like: 40 °F
Forecast: 46 / 51 °F
Wind: 14 mph from Southwest

Location: Valladolid / Villanubla

Current Time: Feb 8, 2016 at 6:28:18 PM

Latest Report: Feb 8, 2016 at 5:30 PM


Visibility: 6 mi

Pressure: 30.21 "Hg (27.71 "Hg at 712m altitude)

Humidity: 100%

Dew point: 46 °F

Location of ValladolidLocation

Historic Weather in Valladolid — Graph

°F

Valladolid Temperature Yesterday

Maximum temperature yesterday: 45 °F (at 2:00 PM)
Minimum temperature yesterday: 32 °F (at 7:00 AM)
Average temperature yesterday: 40 °F

High & Low Weather Summary for the Past Weeks

 TemperatureHumidityPressure
High61 °F (Jan 24, 5:00 PM)100% (Jan 26, 7:00 AM)30.63 "Hg (Jan 26, 7:00 AM)
Low27 °F (Feb 5, 7:00 AM)50% (Feb 5, 3:30 PM)29.74 "Hg (Feb 6, 9:00 PM)
Average43 °F86%30.38 "Hg
* Reported Jan 24 5:00 PM — Feb 8 5:00 PM, Valladolid, Weather by CustomWeather, © 2016

Note: Actual official high and low records may vary slightly from our data, if they occured in-between our weather recording intervals... More about our weather records

Advertising

Valladolid Weather History for the Previous 24 Hours

 ConditionsComfort  
Time TempWeatherWind HumidityBarometerVisibility
5:00 PM
Mon, Feb 8
46 °FDrizzle. Mostly cloudy.16 mph100%30.24 "Hg4 mi
4:30 PM48 °FDrizzle. Mostly cloudy.22 mph87%30.24 "Hg6 mi
4:00 PM48 °FDrizzle. Overcast.16 mph87%30.24 "HgN/A
3:30 PM46 °FDrizzle. Low clouds.20 mph93%30.24 "HgN/A
3:00 PM46 °FDrizzle. Mostly cloudy.20 mph93%30.24 "Hg5 mi
2:30 PM46 °FOvercast.23 mph93%30.24 "HgN/A
2:00 PM46 °FDrizzle. Overcast.20 mph93%30.27 "Hg6 mi
1:30 PM48 °FOvercast.22 mph87%30.27 "HgN/A
1:00 PM46 °FLow clouds.20 mph93%30.27 "HgN/A
12:30 PM46 °FDrizzle. Low clouds.23 mph93%30.27 "Hg6 mi
12:00 PM46 °FDrizzle. Mostly cloudy.20 mph93%30.27 "HgN/A
11:30 AM45 °FLow clouds.18 mph93%30.27 "Hg6 mi
11:00 AM45 °FLow clouds.17 mph93%30.27 "HgN/A
10:30 AM45 °FDrizzle. Low clouds.15 mph93%30.27 "HgN/A
10:00 AM43 °FDrizzle. Low clouds.16 mph100%30.27 "HgN/A
9:30 AM43 °FLow clouds.14 mph93%30.24 "HgN/A
9:00 AM43 °FDrizzle. Low clouds.16 mph93%30.24 "HgN/A
8:45 AM43 °FLow clouds.17 mph93%30.24 "HgN/A
8:30 AM43 °FLow clouds.15 mph93%30.24 "HgN/A
8:00 AM43 °FLow clouds.14 mph93%30.21 "HgN/A
7:30 AM43 °FLow clouds.12 mph93%30.21 "HgN/A
7:00 AM43 °FLow clouds.15 mph93%30.21 "HgN/A
9:30 PM
Sun, Feb 7
43 °FPassing clouds.17 mph81%30.21 "HgN/A
9:00 PM43 °FPassing clouds.13 mph81%30.21 "HgN/A
8:30 PM43 °FPassing clouds.10 mph81%30.21 "HgN/A
8:00 PM43 °FPassing clouds.16 mph81%30.21 "HgN/A
7:30 PM41 °FPassing clouds.14 mph87%30.18 "HgN/A
7:00 PM43 °FPassing clouds.17 mph76%30.18 "HgN/A
6:30 PM43 °FPartly sunny.18 mph76%30.18 "HgN/A
6:00 PM43 °FPartly sunny.18 mph76%30.15 "HgN/A
Weather by CustomWeather, © 2016

See weather overviewHow to use our weather pages